Location: Central Falls
(41.8900°N, 71.3929°W)
Time: 16:08:47
(UTC+00:00)

Vanguard 1 Rocket - Pass Details

Date: 12 December 2023
Orbit: 654 x 4218 km, 34.3° (Epoch: 24 February)

Event Time Altitude Azimuth Distance (km) Brightness Sun altitude
Rises 03:11:42 0° 166° (SSE) 7,752 - -63.8°
Reaches altitude 10° 03:25:43 10° 135° (SE) 7,343 - -65.7°
Maximum altitude 03:30:08 11° 125° (SE) 7,347 - -66.3°
Drops below altitude 10° 03:34:34 10° 115° (ESE) 7,415 - -66.9°
Exits shadow 03:44:42 - 93° (E) 7,811 12.0 -68.0°
Sets 03:48:36 0° 86° (E) 8,050 12.1 -68.4°
